Погода в Гызыларбате

Погода в Гызыларбате : погода сейчас, прогноз погоды и архив. Всё, что Вы хотите узнать о погоде в Гызыларбате!

Хотите узнать прогноз погоды в Гызыларбате? Тогда Вам сюда: Погода в Гызыларбате

Поиск расширенной информации на нашем сайте:

Другие новости

Новости СМИ2

Главная страница сайта

Новости сайта

03.07.2017

Напоминаем, что на нашем специализированном сайте Метеоцентр.Азия вы можете получить высокодетализированные автоматические прогнозы погоды по пунктам России, СНГ и мира в авиационном формате (включающие направление и скорость ветра, видимость, явления погоды, количество и форму облачности, нижнюю и верхнюю границу облачности).

Рекомендуем: Хохлома - хохломские узоры в векторе.

Погода в Гызыларбате - сегодня

Время (UTC), дата Ветер
(°,м/с) 
Видим.   Явления Облачность Т
(°С)
Тd
(°С)
f(%) Тe
(°С)
Pmin
(гПа)
dP
(гПа)
Po
(мм)
O2
(г/м3)
Тmin Tmax R s Состояние
почвы
18 16.09.17 090 (В) 10 км    ясно 
+24.4 +7.6 34 +24  1017.5  1.3  756  278    +33.2       
21 16.09.17 090 (В) 10 км    ясно 
+21.3 +6.2 37 +21  1017.3  -0.3  755  281           
00 17.09.17 180 (Ю) 10 км    ясно 
+28.2 +5 23 +28  1018.4  756  275           
03 17.09.17 тихо ()   20000 м    ясно 
+17 +5.1 45 +17  1019.1  1.6  757  286           
06 17.09.17 010 (С) 20000 м    ясно 
+25 +8.2 34 +25  1019.8  757  278  +16         
09 17.09.17 080 (В) 20000 м    ясно 
+31 +11 29 +33  1018.4  -1.2  757  272           
12 17.09.17 070 (В) 20000 м    ясно 
+31.8 +10.2 26 +33  1017.1  -1.3  756  271           
15 17.09.17 070 (В) 20000 м    ясно 
+28.4 +12.3 37 +33  1017  -0.1  755  273    +33.2       
18 17.09.17 180 (Ю) 10 км    ясно 
+24.6 +8.6 36 +25  1017.3  0.1  756  278    +33.2       
21 17.09.17 210 (ЮЗ) 10 км    ясно 
+23 +6.7 35 +23  1016.9  -0.4  755  280           
00 18.09.17 270 (З) 50000 м    н/о 
+19.3 +20    755  284           
03 18.09.17 260 (З) 20000 м    ясно 
+19.4 +5 39 +20  1017.8  0.4  756  284           
06 18.09.17 340 (С) 20000 м    ясно 
+30 +8.2 26 +30  1018.7  1.3  757  273  +19.1         
09 18.09.17 330 (СЗ) 20000 м    ясно 
+32.8 +10.9 26 +35  1017.5  -1.1  756  270           
12 18.09.17 070 (В) 20000 м    ясно 
+33.3 +10.9 25 +36  1016.3  -1.2  755  269           
15 18.09.17 тихо ()   20000 м    ясно 
+29 +9.8 30 +30  1016.4  755  273    +33.8       
18 18.09.17 200 (Ю) 10 км    ясно 
+22.8 +10.7 46 +25  1016.8  0.2  755  279    +33.8       
21 18.09.17 230 (ЮЗ) 10 км    ясно 
+21.2 +7.7 42 +21  1016.9  755  281           
00 19.09.17 тихо ()   10 км    ясно 
+17.5 +6.4 48 +18  1016.8  -0.2  755  285           
03 19.09.17 180 (Ю) 20000 м    ясно 
+16.3 +6.2 51 +18  1017.8  0.9  756  286           
06 19.09.17 040 (СВ) 20000 м    ясно 
+26 +8.2 32 +26  1018.2  0.7  756  277  +16         
09 19.09.17 090 (В) 20000 м    ясно 
+33.2 +9.9 24 +34  1017.5  -0.4  756  270           
12 19.09.17 090 (В) 20000 м    ясно 
+34 +9.7 23 +35  1016.2  -1.3  755  269           
15 19.09.17 080 (В) 50000 м    н/о 
+30 +30    754  274           
18 19.09.17 090 (В) 10 км    ясно 
+24.5 +8.2 35 +25  1016.5  755  278    +34.4       
Время (UTC), дата Ветер
(°,м/с) 
Видим.   Явления Облачность Т
(°С)
Тd
(°С)
f(%) Тe
(°С)
Pmin
(гПа)
dP
(гПа)
Po
(мм)
O2
(г/м3)
Тmin Tmax R s Состояние
почвы

Для получения пояснительной информации подведите курсор к названию столбца.

ПОГОДА в Гызыларбате - архив

Всё, что Вы хотите узнать о погоде в Гызыларбате - удобно и подробно!

Выберите нужную дату (начиная с 1 января 2015* года) и нажмите кнопку "Найти".
Будут отображены архивные сводки погоды по пункту Гызыларбат, начиная с указанной даты.


Отображать данные в формате CSV (для использования в таблицах Excel)


Внимание! Наш архив погоды предназначен исключительно для личного некоммерческого использования в познавательных целях. Если Вам необходимы официальные справки о состоянии погоды (для производственных, юридических, коммерческих и т.п. целей), обращайтесь в органы Росгидромета.

*Примечание: данная дата относится к архиву по метеостанциям СССР (Россия, СНГ, Балтия).
Архив по метеостанциям Зарубежной Европы и Азии (кроме Китая) хранится 10 дней, по другим регионам земного шара (Китай, Африка, Америка, Австралия, Океания) - 1 день.

Гызыларбат - район местоположения метеостанции


Название, широта, долгота, высота метеостанции:
Гызыларбат 39°ш. 56.3°д. 92 м над ур. моря [Туркменистан]

Дополнительная информация

В oтличие oт бoльшинства пoгoдных сайтoв мы публикуем пoдрoбную метеoинфoрмацию в детальнoм прoфессиoнальнoм фoрмате.

Характеристики температуры и влажнoсти вoздуха измеряются на высoте 2 м в тени вдали oт зданий и деревьев.
Скoрoсть ветра измеряется на высoте 10 м (на урoвне рoста челoвека скoрoсть ветра ниже в 1.5-2 раза). Если метеoстанция нахoдится в гoрoде или в лесу, тo скoрoсть ветра занижена на 2-4 м/с пo сравнению с oткрытым местoм. Скoрoсть ветра над акватoриями крупных рек и oзёр, а также на вершинах хoлмoв на 2-5 м/с выше, чем в oбычных услoвиях.
Атмoсфернoе давление в разных тoчках местнoсти мoжет значительнo oтличаться oт давления на метеoстанции, в зависимoсти oт услoвий рельефа (при пoдъёме на 10 м давление пoнижается примернo на 1 мм рт.ст.).